Weather History for KASW - April, 2014

Change the Weather History Date:

Thursday, April 17, 2014

  Actual Average (KFWA) Record (KFWA)
Temperature  
Mean Temperature 48 °F 51 °F  
Max Temperature 64 °F 62 °F 85 °F (2002)
Min Temperature 33 °F 39 °F 20 °F (1904)
Degree Days  
Heating Degree Days 16 15  
Month to date heating degree days 299  
Since 1 July heating degree days 5723  
Cooling Degree Days 0 0  
Month to date cooling degree days 0  
Year to date cooling degree days 0  
Moisture  
Dew Point 31 °F    
Average Humidity 51    
Maximum Humidity 75    
Minimum Humidity 32    
Precipitation  
Precipitation 0.00 in 0.12 in 2.56 in (1963)
Month to date precipitation 2.04  
Year to date precipitation 9.05  
Snow  
Snow 0.00 in 0.00 in 1.80 in (1949)
Month to date snowfall 0.8  
Since 1 July snowfall 33.3  
Snow Depth -    
Sea Level Pressure  
Sea Level Pressure 30.24 in    
Wind  
Wind Speed 8 mph (South)    
Max Wind Speed 14 mph    
Max Gust Speed 21 mph    
Visibility 10 miles    
Events      
T = Trace of Precipitation, MM = Missing Value Source: NWS Daily Summary

Daily Weather History Graph

Daily Weather History Graph

Search for Another Location

Airport or City:

Trip Planner

Search our weather history database for the weather conditions in past years. The results will help you decide how hot, cold, wet, or windy it might be!

Date:

Astronomy

Apr. 17, 2014 Rise Set
Actual Time 7:00 AM EDT 8:25 PM EDT
Civil Twilight 6:32 AM EDT 8:54 PM EDT
Nautical Twilight 5:57 AM EDT 9:29 PM EDT
Astronomical Twilight 5:20 AM EDT 10:06 PM EDT
Moon 11:12 PM EDT (4/17) 8:31 AM EDT (4/17)
Length of Visible Light 14h 22m
Length of Day
13h 24m
Waning Gibbous, 94% of the Moon is Illuminated
Apr 17
Waning Gibbous
Apr 22
Last Quarter
Apr 29
New
May 6
First Quarter
May 14
Full

Hourly Weather History & Observations

Time (EDT) Temp. Windchill Dew Point Humidity Pressure Visibility Wind Dir Wind Speed Gust Speed Precip Events Conditions
12:15 AM 39.2 °F 32.5 °F 26.6 °F 61% 30.24 in 10.0 mi SE 10.4 mph 18.4 mph N/A   Clear
12:35 AM 39.2 °F 31.6 °F 26.6 °F 61% 30.24 in 10.0 mi SE 12.7 mph 18.4 mph N/A   Clear
12:55 AM 39.2 °F 33.0 °F 24.8 °F 56% 30.24 in 10.0 mi SE 9.2 mph - N/A   Clear
1:15 AM 39.2 °F 33.0 °F 24.8 °F 56% 30.24 in 10.0 mi ESE 9.2 mph 17.3 mph N/A   Clear
1:35 AM 37.4 °F 29.3 °F 26.6 °F 65% 30.24 in 10.0 mi ESE 12.7 mph 17.3 mph N/A   Clear
1:55 AM 37.4 °F 30.8 °F 26.6 °F 65% 30.24 in 10.0 mi ESE 9.2 mph - N/A   Clear
2:15 AM 37.4 °F 30.3 °F 26.6 °F 65% 30.25 in 10.0 mi SE 10.4 mph 18.4 mph N/A   Clear
2:35 AM 37.4 °F 29.8 °F 26.6 °F 65% 30.25 in 10.0 mi SE 11.5 mph 16.1 mph N/A   Clear
2:55 AM 37.4 °F 30.3 °F 26.6 °F 65% 30.24 in 10.0 mi SE 10.4 mph 17.3 mph N/A   Clear
3:15 AM 37.4 °F 29.8 °F 26.6 °F 65% 30.24 in 10.0 mi SE 11.5 mph - N/A   Clear
3:35 AM 37.4 °F 30.8 °F 26.6 °F 65% 30.24 in 10.0 mi SE 9.2 mph - N/A   Clear
3:55 AM 37.4 °F 31.4 °F 26.6 °F 65% 30.25 in 10.0 mi SE 8.1 mph 16.1 mph N/A   Clear
4:15 AM 35.6 °F 28.6 °F 26.6 °F 70% 30.24 in 10.0 mi SE 9.2 mph - N/A   Clear
4:35 AM 35.6 °F 29.9 °F 26.6 °F 70% 30.24 in 10.0 mi ESE 6.9 mph - N/A   Clear
4:55 AM 33.8 °F 27.7 °F 26.6 °F 75% 30.24 in 10.0 mi ESE 6.9 mph - N/A   Clear
5:15 AM 33.8 °F 27.7 °F 26.6 °F 75% 30.24 in 10.0 mi ESE 6.9 mph - N/A   Clear
5:35 AM 33.8 °F 27.7 °F 26.6 °F 75% 30.24 in 10.0 mi ESE 6.9 mph - N/A   Clear
5:55 AM 33.8 °F 28.6 °F 26.6 °F 75% 30.24 in 10.0 mi SE 5.8 mph - N/A   Clear
6:15 AM 33.8 °F - 26.6 °F 75% 30.25 in 10.0 mi Calm Calm - N/A   Clear
6:35 AM 33.8 °F 27.7 °F 26.6 °F 75% 30.24 in 10.0 mi SE 6.9 mph - N/A   Clear
6:55 AM 33.8 °F 28.6 °F 26.6 °F 75% 30.24 in 10.0 mi SE 5.8 mph - N/A   Clear
7:15 AM 33.8 °F 27.7 °F 26.6 °F 75% 30.24 in 10.0 mi SE 6.9 mph - N/A   Clear
7:35 AM 33.8 °F 27.0 °F 26.6 °F 75% 30.24 in 10.0 mi SE 8.1 mph - N/A   Clear
7:55 AM 33.8 °F 28.6 °F 26.6 °F 75% 30.24 in 10.0 mi ESE 5.8 mph - N/A   Clear
8:15 AM 35.6 °F 29.9 °F 26.6 °F 70% 30.25 in 10.0 mi SSE 6.9 mph - N/A   Clear
8:35 AM 37.4 °F 32.1 °F 26.6 °F 65% 30.25 in 10.0 mi South 6.9 mph - N/A   Clear
8:55 AM 41.0 °F 35.8 °F 26.6 °F 57% 30.25 in 10.0 mi SSE 8.1 mph - N/A   Clear
9:15 AM 42.8 °F 38.6 °F 26.6 °F 53% 30.25 in 10.0 mi South 6.9 mph - N/A   Clear
9:35 AM 44.6 °F 40.7 °F 26.6 °F 49% 30.25 in 10.0 mi South 6.9 mph - N/A   Clear
9:55 AM 46.4 °F 42.9 °F 28.4 °F 50% 30.25 in 10.0 mi South 6.9 mph - N/A   Clear
10:15 AM 48.2 °F - 28.4 °F 46% 30.25 in 10.0 mi South 9.2 mph - N/A   Clear
10:35 AM 50.0 °F - 28.4 °F 43% 30.25 in 10.0 mi South 8.1 mph 16.1 mph N/A   Clear
10:55 AM 51.8 °F - 30.2 °F 44% 30.25 in 10.0 mi SSW 6.9 mph 17.3 mph N/A   Clear
11:15 AM 53.6 °F - 30.2 °F 41% 30.25 in 10.0 mi SSW 5.8 mph 16.1 mph N/A   Clear
11:35 AM 55.4 °F - 30.2 °F 38% 30.26 in 10.0 mi SSW 9.2 mph - N/A   Clear
11:55 AM 55.4 °F - 30.2 °F 38% 30.25 in 10.0 mi SSW 9.2 mph - N/A   Clear
12:15 PM 57.2 °F - 30.2 °F 36% 30.25 in 10.0 mi SW 13.8 mph 17.3 mph N/A   Clear
12:35 PM 57.2 °F - 32.0 °F 38% 30.25 in 10.0 mi South 10.4 mph 16.1 mph N/A   Clear
12:55 PM 59.0 °F - 32.0 °F 36% 30.24 in 10.0 mi South 6.9 mph 17.3 mph N/A   Clear
1:15 PM 60.8 °F - 32.0 °F 34% 30.24 in 10.0 mi SW 10.4 mph 18.4 mph N/A   Clear
1:35 PM 60.8 °F - 32.0 °F 34% 30.24 in 10.0 mi SW 9.2 mph 16.1 mph N/A   Clear
1:55 PM 60.8 °F - 32.0 °F 34% 30.23 in 10.0 mi SSW 8.1 mph 17.3 mph N/A   Clear
2:15 PM 60.8 °F - 32.0 °F 34% 30.23 in 10.0 mi SW 8.1 mph 19.6 mph N/A   Clear
2:35 PM 62.6 °F - 32.0 °F 32% 30.23 in 10.0 mi SSW 10.4 mph 17.3 mph N/A   Clear
2:55 PM 62.6 °F - 32.0 °F 32% 30.23 in 10.0 mi SSW 10.4 mph 20.7 mph N/A   Clear
3:15 PM 62.6 °F - 32.0 °F 32% 30.23 in 10.0 mi SSW 10.4 mph - N/A   Clear
3:35 PM 62.6 °F - 33.8 °F 34% 30.23 in 10.0 mi SW 9.2 mph 16.1 mph N/A   Clear
3:55 PM 62.6 °F - 33.8 °F 34% 30.23 in 10.0 mi SSW 9.2 mph - N/A   Clear
4:15 PM 62.6 °F - 33.8 °F 34% 30.22 in 10.0 mi South 10.4 mph 17.3 mph N/A   Clear
4:35 PM 62.6 °F - 33.8 °F 34% 30.22 in 10.0 mi SSW 8.1 mph 17.3 mph N/A   Clear
4:55 PM 62.6 °F - 33.8 °F 34% 30.22 in 10.0 mi SSW 10.4 mph 17.3 mph N/A   Clear
5:15 PM 64.4 °F - 33.8 °F 32% 30.22 in 10.0 mi SW 12.7 mph 17.3 mph N/A   Clear
5:35 PM 64.4 °F - 33.8 °F 32% 30.22 in 10.0 mi SW 6.9 mph - N/A   Clear
5:55 PM 62.6 °F - 33.8 °F 34% 30.22 in 10.0 mi SSW 9.2 mph 16.1 mph N/A   Clear
6:15 PM 62.6 °F - 33.8 °F 34% 30.22 in 10.0 mi SW 9.2 mph - N/A   Clear
6:35 PM 62.6 °F - 33.8 °F 34% 30.22 in 10.0 mi SW 11.5 mph 17.3 mph N/A   Clear
6:55 PM 62.6 °F - 35.6 °F 37% 30.22 in 10.0 mi SW 8.1 mph - N/A   Clear
7:15 PM 62.6 °F - 35.6 °F 37% 30.22 in 10.0 mi SW 8.1 mph - N/A   Clear
7:35 PM 60.8 °F - 35.6 °F 39% 30.22 in 10.0 mi SW 5.8 mph - N/A   Clear
7:55 PM 60.8 °F - 35.6 °F 39% 30.22 in 10.0 mi SW 4.6 mph - N/A   Clear
8:15 PM 59.0 °F - 35.6 °F 42% 30.22 in 10.0 mi SW 3.5 mph - N/A   Clear
8:35 PM 59.0 °F - 35.6 °F 42% 30.23 in 10.0 mi Calm Calm - N/A   Scattered Clouds
8:55 PM 55.4 °F - 35.6 °F 47% 30.23 in 10.0 mi Calm Calm - N/A   Clear
9:15 PM 55.4 °F - 35.6 °F 47% 30.24 in 10.0 mi Calm Calm - N/A   Clear
9:35 PM 55.4 °F - 35.6 °F 47% 30.25 in 10.0 mi Calm Calm - N/A   Clear
9:55 PM 55.4 °F - 35.6 °F 47% 30.25 in 10.0 mi Calm Calm - N/A   Clear
10:15 PM 53.6 °F - 35.6 °F 51% 30.25 in 10.0 mi Calm Calm - N/A   Clear
10:35 PM 53.6 °F - 35.6 °F 51% 30.25 in 10.0 mi Calm Calm - N/A   Clear
10:55 PM 51.8 °F - 37.4 °F 58% 30.24 in 10.0 mi Calm Calm - N/A   Clear
11:15 PM 50.0 °F - 37.4 °F 62% 30.25 in 10.0 mi Calm Calm - N/A   Clear
11:35 PM 51.8 °F - 37.4 °F 58% 30.25 in 10.0 mi Calm Calm - N/A   Clear
11:55 PM 51.8 °F - 37.4 °F 58% 30.24 in 10.0 mi Calm Calm - N/A   Clear